(171612) = 2000 AS241

Discovered at Anderson Mesa on 2000-01-07 by LONEOS.

Orbit

Orbit type: Main Belt

Note: WebGL enabled browser required.

epoch2023-09-13.0
epoch JD2460200.5
perihelion date2020-07-26.73836
perihelion JD2459057.23836
argument of perihelion (°)270.73064
ascending node (°)187.15618
inclination (°)12.36101
eccentricity0.1464043
perihelion distance (AU)2.2034415
Tisserand w.r.t. Jupiter3.4
ΔV w.r.t. Earth (km/sec)10.1
semimajor axis (AU)2.5813643
mean anomaly (°)271.69118
mean daily motion (°/day)0.23764570
aphelion distance (AU)2.959
period (years)4.15
P-vector [x]-0.13432898
P-vector [y]0.97284766
P-vector [z]0.18847590
Q-vector [x]-0.99057789
Q-vector [y]-0.12671051
Q-vector [z]-0.05196046
absolute magnitude16.08
phase slope0.15
uncertainty0
referenceMPEC 2024-A34
observations used742
oppositions17
arc length (days)9199
first opposition used1998
last opposition used2023
residual rms (arc-secs)0.72
perturbers coarse indicatorM-v
perturbers precise indicator003Ek
first observation date used1998-09-30.0
last observation date used2023-12-07.0
computer nameMPCLINUX
JD of orbit computation2456523.323074
perihelion JD uncertainty (days)8.6677E-05
argument of perihelion uncertainty (°)2.9137E-05
ascending node uncertainty (°)1.9386E-05
inclination uncertainty (°)5.6926E-06
eccentricity uncertainty 4.0975E-08
perihelion distance uncertainty (AU)1.0535E-07
Minimum Orbit Intersection Distances (in AU)
for orbit epoch: 2460200.5, reference: E2024-A34
Mercury1.90913
Venus1.51309
Earth1.25952
Mars0.72019
Jupiter2.30101
Saturn6.86514
Uranus15.9529
Neptune27.2726

Observations

766 total observations over interval: 1998 09 30.17168 – 2023 12 07.099065
These data are available for download (format description).

Date (UT) J2000 RA J2000 Dec Magn Location Ref
1998 09 30.17168 22 28 24.73 -02 52 50.2 20.1 V 691 – Steward Observatory, Kitt Peak-Spacewatch MPS 133068
1998 09 30.19260 22 28 24.08 -02 53 01.1 20.3 V 691 – Steward Observatory, Kitt Peak-Spacewatch MPS 133068
1998 09 30.21420 22 28 23.39 -02 53 12.6 20.0 V 691 – Steward Observatory, Kitt Peak-Spacewatch MPS 133068
2000 01 07.32067 08 33 28.27 -01 17 11.2 18.6 R 699 – Lowell Observatory-LONEOS MPS 10249
2000 01 07.35124 08 33 26.91 -01 17 08.4   699 – Lowell Observatory-LONEOS MPS 10249
2000 01 07.38183 08 33 25.59 -01 17 06.2   699 – Lowell Observatory-LONEOS MPS 10249
2000 01 11.32523 08 30 32.31 -01 09 47.9 19.6   704 – Lincoln Laboratory ETS, New Mexico MPS 10249
2000 01 11.34012 08 30 31.57 -01 09 45.1 19.6   704 – Lincoln Laboratory ETS, New Mexico MPS 10249
2000 01 11.35499 08 30 30.90 -01 09 41.3 19.3   704 – Lincoln Laboratory ETS, New Mexico MPS 10249
2000 01 11.36990 08 30 30.16 -01 09 40.0 19.0   704 – Lincoln Laboratory ETS, New Mexico MPS 10249
2000 02 06.24882 08 08 53.81 +01 24 17.0 18.1   704 – Lincoln Laboratory ETS, New Mexico MPS 34175
2000 02 06.26375 08 08 53.15 +01 24 24.4 18.9   704 – Lincoln Laboratory ETS, New Mexico MPS 34175
2000 02 06.27864 08 08 52.38 +01 24 31.5 18.9   704 – Lincoln Laboratory ETS, New Mexico MPS 34175
2000 02 06.29358 08 08 51.66 +01 24 39.8 18.5   704 – Lincoln Laboratory ETS, New Mexico MPS 34175
2000 02 06.30889 08 08 50.88 +01 24 46.5 19.4   704 – Lincoln Laboratory ETS, New Mexico MPS 34175
2000 03 06.17561 07 57 26.12 +05 59 07.9 18.8   704 – Lincoln Laboratory ETS, New Mexico MPS 34175
2000 03 06.20214 07 57 26.05 +05 59 22.4 19.8   704 – Lincoln Laboratory ETS, New Mexico MPS 34175
2000 03 06.21539 07 57 26.11 +05 59 28.8 19.7   704 – Lincoln Laboratory ETS, New Mexico MPS 34175
2000 03 06.22863 07 57 26.15 +05 59 37.0 20.1   704 – Lincoln Laboratory ETS, New Mexico MPS 34175
2002 08 15.43147 21 53 27.02 +00 21 15.9 20.3   644 – Palomar Mountain/NEAT MPS 133068
2002 08 15.44183 21 53 26.48 +00 21 11.5 20.1   644 – Palomar Mountain/NEAT MPS 133068
2002 08 15.45233 21 53 25.98 +00 21 07.4 20.0   644 – Palomar Mountain/NEAT MPS 133068
2004 01 29.21064 06 19 06.21 +03 20 42.6 18.9   704 – Lincoln Laboratory ETS, New Mexico MPS 133068
2004 01 29.22286 06 19 05.82 +03 20 48.2 19.0   704 – Lincoln Laboratory ETS, New Mexico MPS 133068
2004 01 29.23500 06 19 05.52 +03 20 54.0 19.0   704 – Lincoln Laboratory ETS, New Mexico MPS 133068
2004 01 29.24768 06 19 05.21 +03 20 59.1 19.4   704 – Lincoln Laboratory ETS, New Mexico MPS 133068
2004 02 18.17723 06 17 04.57 +06 01 26.3 19.9   704 – Lincoln Laboratory ETS, New Mexico MPS 133068
2004 02 18.19048 06 17 04.71 +06 01 32.3 20.0   704 – Lincoln Laboratory ETS, New Mexico MPS 133068
2004 02 18.21726 06 17 05.06 +06 01 46.8 19.8   704 – Lincoln Laboratory ETS, New Mexico MPS 133068
2005 05 06.27911 15 30 17.60 -05 33 15.7 19.6 V 703 – Catalina Sky Survey MPS 133216
2005 05 06.28751 15 30 17.10 -05 33 12.8 19.0 V 703 – Catalina Sky Survey MPS 133216
2005 05 06.29589 15 30 16.74 -05 33 10.2 19.2 V 703 – Catalina Sky Survey MPS 133216
2005 05 06.30428 15 30 15.94 -05 33 07.6 20.0 V 703 – Catalina Sky Survey MPS 133216
2005 05 15.28501 15 22 33.72 -04 36 28.3 19.6   644 – Palomar Mountain/NEAT MPS 134711
2005 05 15.30564 15 22 32.63 -04 36 21.0 19.4   644 – Palomar Mountain/NEAT MPS 134711
2005 05 15.32674 15 22 31.51 -04 36 13.8 19.5   644 – Palomar Mountain/NEAT MPS 134711
2006 05 06.44846 21 08 39.65 -03 43 09.6 21.3 V 691 – Steward Observatory, Kitt Peak-Spacewatch MPS 171346
2006 05 06.46342 21 08 40.23 -03 43 04.3 21.2 V 691 – Steward Observatory, Kitt Peak-Spacewatch MPS 171346
2006 05 06.47846 21 08 40.88 -03 42 58.5 21.7 V 691 – Steward Observatory, Kitt Peak-Spacewatch MPS 171346
2006 08 16.20623 20 48 18.12 -02 37 17.3 19.8 R 644 – Palomar Mountain/NEAT MPS 176819
2006 08 16.22674 20 48 17.12 -02 37 25.9 20.4 R 644 – Palomar Mountain/NEAT MPS 176819
2006 08 16.24721 20 48 16.12 -02 37 34.3 19.6 R 644 – Palomar Mountain/NEAT MPS 176819
2007 11 14.25852 05 21 09.00 +04 59 37.9 19.0 r 699 – Lowell Observatory-LONEOS MPS 226675
2007 11 14.28138 05 21 08.24 +04 59 26.4 18.9 r 699 – Lowell Observatory-LONEOS MPS 226675
2007 11 14.30423 05 21 07.46 +04 59 14.5 18.7 r 699 – Lowell Observatory-LONEOS MPS 226675
2007 11 14.32707 05 21 06.65 +04 59 02.1 18.5 r 699 – Lowell Observatory-LONEOS MPS 226675
2007 11 14.34058 05 21 06.20 +04 58 56.2 18.4 R 683 – Goodricke-Pigott Observatory, Tucson MPS 226675
2007 11 14.35399 05 21 05.73 +04 58 49.3 17.4 R 683 – Goodricke-Pigott Observatory, Tucson MPS 226675
2007 11 14.36735 05 21 05.28 +04 58 43.3 19.1 R 683 – Goodricke-Pigott Observatory, Tucson MPS 226675
2007 11 20.33287 05 17 26.41 +04 10 24.4 18.6 V 703 – Catalina Sky Survey MPS 228918
2007 11 20.34212 05 17 26.01 +04 10 20.1 18.7 V 703 – Catalina Sky Survey MPS 228918
2007 11 20.35135 05 17 25.58 +04 10 16.1 18.7 V 703 – Catalina Sky Survey MPS 228918
2007 12 28.32616 04 45 45.50 +01 54 55.4 18.5   704 – Lincoln Laboratory ETS, New Mexico MPS 232516
2007 12 28.33902 04 45 44.90 +01 54 56.7 18.7   704 – Lincoln Laboratory ETS, New Mexico MPS 232516
2007 12 28.35193 04 45 44.37 +01 54 58.0 18.8   704 – Lincoln Laboratory ETS, New Mexico MPS 232516
2007 12 28.36480 04 45 43.87 +01 54 58.2 18.6   704 – Lincoln Laboratory ETS, New Mexico MPS 232516
2007 12 28.37767 04 45 43.27 +01 54 59.7 18.6   704 – Lincoln Laboratory ETS, New Mexico MPS 232516
2008 02 11.17539 04 45 21.52 +05 56 51.7 19.1 V 703 – Catalina Sky Survey MPS 239090
2008 02 11.18184 04 45 21.67 +05 56 55.3 19.7 V 703 – Catalina Sky Survey MPS 239090
2008 02 11.18829 04 45 22.06 +05 56 57.5 19.6 V 703 – Catalina Sky Survey MPS 239090
2008 02 11.19471 04 45 22.21 +05 57 00.2 19.9 V 703 – Catalina Sky Survey MPS 239090
2008 02 29.16265 05 01 21.26 +08 13 33.4 19.2   704 – Lincoln Laboratory ETS, New Mexico MPS 241890
2008 02 29.17365 05 01 21.97 +08 13 38.9 20.3   704 – Lincoln Laboratory ETS, New Mexico MPS 241890
2008 02 29.18463 05 01 22.71 +08 13 44.9 20.1   704 – Lincoln Laboratory ETS, New Mexico MPS 241890
2009 02 01.51190 14 35 51.18 -12 30 00.4 20.9 V G96 – Mt. Lemmon Survey MPS 276095
2009 02 01.51904 14 35 51.54 -12 30 00.5 20.7 V G96 – Mt. Lemmon Survey MPS 276095
2009 02 01.52631 14 35 51.90 -12 30 00.3 20.7 V G96 – Mt. Lemmon Survey MPS 276095
2009 02 01.53358 14 35 52.29 -12 30 00.4 21.0 V G96 – Mt. Lemmon Survey MPS 276095
2009 02 05.52406 14 39 16.23 -12 28 27.0 20.8 V 691 – Steward Observatory, Kitt Peak-Spacewatch MPS 276095
2009 02 05.53714 14 39 16.87 -12 28 26.1 21.1 V 691 – Steward Observatory, Kitt Peak-Spacewatch MPS 276095
2009 02 05.55023 14 39 17.46 -12 28 26.8 20.9 V 691 – Steward Observatory, Kitt Peak-Spacewatch MPS 276095
2009 04 19.23283 14 36 13.08 -05 35 18.9 19.8 V 691 – Steward Observatory, Kitt Peak-Spacewatch MPS 285522
2009 04 19.25047 14 36 12.21 -05 35 09.5 19.8 V 691 – Steward Observatory, Kitt Peak-Spacewatch MPS 285522
2009 04 19.26810 14 36 11.33 -05 35 00.4 19.8 V 691 – Steward Observatory, Kitt Peak-Spacewatch MPS 285522
2009 04 20.31242 14 35 20.76 -05 26 01.4 19.5   704 – Lincoln Laboratory ETS, New Mexico MPS 285522
2009 04 20.34363 14 35 19.18 -05 25 45.2 20.0   704 – Lincoln Laboratory ETS, New Mexico MPS 285522
2009 04 20.37506 14 35 17.63 -05 25 29.4 19.7   704 – Lincoln Laboratory ETS, New Mexico MPS 285522
2009 04 21.22141 14 34 36.55 -05 18 15.2 19.8 V 691 – Steward Observatory, Kitt Peak-Spacewatch MPS 285522
2009 04 21.23907 14 34 35.68 -05 18 06.2 19.7 V 691 – Steward Observatory, Kitt Peak-Spacewatch MPS 285522
2009 04 21.25674 14 34 34.78 -05 17 57.2 19.8 V 691 – Steward Observatory, Kitt Peak-Spacewatch MPS 285522
2009 04 23.21952 14 32 58.06 -05 01 20.4 19.7 V 691 – Steward Observatory, Kitt Peak-Spacewatch MPS 285522
2009 04 23.23719 14 32 57.16 -05 01 11.4 19.8 V 691 – Steward Observatory, Kitt Peak-Spacewatch MPS 285522
2009 04 23.25488 14 32 56.20 -05 01 03.5 19.6 V 691 – Steward Observatory, Kitt Peak-Spacewatch MPS 285523
2009 04 27.21844 14 29 38.32 -04 28 24.2 20.8 V 691 – Steward Observatory, Kitt Peak-Spacewatch MPS 286343
